TimeEST,TemperatureF,Dew PointF,Humidity,Sea Level PressureIn,VisibilityMPH,Wind Direction,Wind SpeedMPH,Gust SpeedMPH,PrecipitationIn,Events,Conditions,WindDirDegrees,DateUTC
12:35 AM,44.6,42.8,93,29.82,10.0,ESE,5.8,-,N/A,,Overcast,120,2013-02-13 05:35:00
12:55 AM,44.6,44.6,100,29.81,10.0,ESE,5.8,-,N/A,,Overcast,110,2013-02-13 05:55:00
1:15 AM,44.6,44.6,100,29.81,10.0,ESE,9.2,-,N/A,,Overcast,120,2013-02-13 06:15:00
1:35 AM,44.6,44.6,100,29.80,10.0,ESE,8.1,-,N/A,,Overcast,120,2013-02-13 06:35:00
1:55 AM,44.6,44.6,100,29.79,10.0,ESE,5.8,-,N/A,,Overcast,120,2013-02-13 06:55:00
2:15 AM,44.6,44.6,100,29.79,7.0,SE,8.1,-,N/A,,Light Drizzle,130,2013-02-13 07:15:00
2:35 AM,44.6,44.6,100,29.79,4.0,ESE,6.9,-,N/A,Rain,Light Rain,120,2013-02-13 07:35:00
2:55 AM,44.6,44.6,100,29.78,2.5,ESE,5.8,-,N/A,Rain,Rain,110,2013-02-13 07:55:00
3:15 AM,44.6,44.6,100,29.78,3.0,ESE,5.8,-,N/A,,Drizzle,120,2013-02-13 08:15:00
3:35 AM,44.6,44.6,100,29.76,4.0,SE,6.9,-,N/A,,Drizzle,130,2013-02-13 08:35:00
3:55 AM,44.6,44.6,100,29.75,4.0,ESE,6.9,-,N/A,Rain,Light Rain,120,2013-02-13 08:55:00
4:15 AM,44.6,44.6,100,29.75,5.0,ESE,8.1,-,N/A,,Overcast,120,2013-02-13 09:15:00
4:35 AM,44.6,44.6,100,29.75,4.0,ESE,5.8,-,N/A,,Overcast,120,2013-02-13 09:35:00
4:55 AM,44.6,44.6,100,29.74,2.5,ESE,6.9,-,N/A,,Overcast,120,2013-02-13 09:55:00
5:15 AM,44.6,44.6,100,29.74,2.5,SE,5.8,-,N/A,,Overcast,130,2013-02-13 10:15:00
5:35 AM,44.6,44.6,100,29.74,2.5,SE,5.8,-,N/A,,Overcast,130,2013-02-13 10:35:00
5:55 AM,44.6,44.6,100,29.77,2.5,Calm,Calm,-,N/A,,Drizzle,0,2013-02-13 10:55:00
6:15 AM,44.6,44.6,100,29.77,2.0,Calm,Calm,-,N/A,,Drizzle,0,2013-02-13 11:15:00
6:35 AM,44.6,44.6,100,29.73,2.5,SE,6.9,-,N/A,,Drizzle,140,2013-02-13 11:35:00
6:55 AM,44.6,44.6,100,29.77,2.5,Calm,Calm,-,N/A,,Light Drizzle,0,2013-02-13 11:55:00
7:15 AM,44.6,44.6,100,29.75,2.5,SSE,5.8,-,N/A,,Light Drizzle,160,2013-02-13 12:15:00
7:35 AM,44.6,44.6,100,29.77,2.5,SW,3.5,-,N/A,,Light Drizzle,220,2013-02-13 12:35:00
7:55 AM,44.6,44.6,100,29.77,1.5,Calm,Calm,-,N/A,,Overcast,0,2013-02-13 12:55:00
8:15 AM,44.6,44.6,100,29.79,0.8,Calm,Calm,-,N/A,,Overcast,0,2013-02-13 13:15:00
8:35 AM,44.6,44.6,100,29.79,1.0,Calm,Calm,-,N/A,,Overcast,0,2013-02-13 13:35:00
8:55 AM,46.4,46.4,100,29.78,1.0,Calm,Calm,-,N/A,Rain,Light Rain,0,2013-02-13 13:55:00
9:35 AM,48.2,46.4,93,29.82,10.0,WSW,6.9,-,N/A,,Overcast,250,2013-02-13 14:35:00
9:55 AM,48.2,46.4,93,29.79,10.0,West,3.5,-,N/A,,Overcast,280,2013-02-13 14:55:00
10:15 AM,48.2,46.4,93,29.82,10.0,West,5.8,-,N/A,,Overcast,270,2013-02-13 15:15:00
10:35 AM,50.0,46.4,87,29.81,10.0,WSW,6.9,-,N/A,,Overcast,250,2013-02-13 15:35:00
10:55 AM,50.0,46.4,87,29.81,10.0,West,8.1,-,N/A,,Overcast,270,2013-02-13 15:55:00
11:15 AM,50.0,44.6,82,29.83,10.0,West,11.5,21.9,N/A,,Overcast,260,2013-02-13 16:15:00
11:55 AM,50.0,44.6,82,29.82,10.0,WSW,6.9,18.4,N/A,,Mostly Cloudy,240,2013-02-13 16:55:00
12:15 PM,48.2,42.8,82,29.84,10.0,WSW,8.1,19.6,N/A,,Overcast,250,2013-02-13 17:15:00
12:35 PM,48.2,42.8,82,29.84,10.0,West,8.1,-,N/A,,Overcast,260,2013-02-13 17:35:00
12:55 PM,48.2,42.8,82,29.83,10.0,West,9.2,-,N/A,,Overcast,280,2013-02-13 17:55:00
1:15 PM,48.2,42.8,82,29.83,10.0,West,9.2,-,N/A,,Overcast,280,2013-02-13 18:15:00
1:35 PM,48.2,41.0,76,29.82,10.0,West,10.4,16.1,N/A,,Overcast,280,2013-02-13 18:35:00
1:55 PM,46.4,41.0,81,29.83,10.0,West,6.9,20.7,N/A,,Overcast,260,2013-02-13 18:55:00
2:15 PM,46.4,41.0,81,29.82,10.0,West,8.1,16.1,N/A,,Overcast,270,2013-02-13 19:15:00
2:35 PM,46.4,41.0,81,29.82,10.0,WNW,6.9,-,N/A,,Overcast,300,2013-02-13 19:35:00
2:55 PM,46.4,41.0,81,29.83,10.0,WNW,9.2,19.6,N/A,,Overcast,300,2013-02-13 19:55:00
3:15 PM,46.4,41.0,81,29.84,10.0,WNW,11.5,-,N/A,,Overcast,290,2013-02-13 20:15:00
3:35 PM,46.4,41.0,81,29.84,10.0,WNW,8.1,18.4,N/A,,Overcast,290,2013-02-13 20:35:00
3:55 PM,46.4,41.0,81,29.85,10.0,West,6.9,-,N/A,,Overcast,270,2013-02-13 20:55:00
4:15 PM,46.4,41.0,81,29.86,10.0,West,5.8,-,N/A,,Overcast,270,2013-02-13 21:15:00
4:35 PM,46.4,41.0,81,29.86,10.0,West,6.9,-,N/A,,Overcast,270,2013-02-13 21:35:00
4:55 PM,46.4,39.2,76,29.87,10.0,WNW,6.9,17.3,N/A,,Overcast,290,2013-02-13 21:55:00
5:15 PM,46.4,39.2,76,29.88,10.0,WNW,8.1,-,N/A,,Overcast,290,2013-02-13 22:15:00
5:35 PM,44.6,39.2,81,29.88,10.0,West,6.9,-,N/A,,Overcast,280,2013-02-13 22:35:00
5:55 PM,44.6,39.2,81,29.90,10.0,NW,12.7,21.9,N/A,,Overcast,310,2013-02-13 22:55:00
6:15 PM,44.6,37.4,76,29.91,10.0,NW,10.4,18.4,N/A,,Overcast,310,2013-02-13 23:15:00
6:35 PM,44.6,35.6,71,29.91,10.0,NNW,15.0,21.9,N/A,,Overcast,330,2013-02-13 23:35:00
6:55 PM,42.8,35.6,76,29.92,10.0,NW,9.2,18.4,N/A,,Overcast,310,2013-02-13 23:55:00
7:15 PM,42.8,35.6,76,29.94,10.0,NW,4.6,-,N/A,,Mostly Cloudy,310,2013-02-14 00:15:00
7:35 PM,42.8,35.6,76,29.94,10.0,NW,4.6,-,N/A,,Overcast,320,2013-02-14 00:35:00
7:55 PM,42.8,35.6,76,29.95,10.0,NW,4.6,-,N/A,,Overcast,310,2013-02-14 00:55:00
8:15 PM,41.0,35.6,81,29.94,10.0,NW,8.1,-,N/A,,Overcast,310,2013-02-14 01:15:00
8:35 PM,41.0,35.6,81,29.95,10.0,NW,6.9,-,N/A,,Overcast,320,2013-02-14 01:35:00
8:55 PM,41.0,35.6,81,29.95,10.0,WNW,4.6,-,N/A,,Overcast,300,2013-02-14 01:55:00
9:15 PM,41.0,35.6,81,29.96,10.0,NNW,5.8,-,N/A,,Overcast,330,2013-02-14 02:15:00
9:55 PM,41.0,35.6,81,29.97,10.0,NW,4.6,-,N/A,,Mostly Cloudy,310,2013-02-14 02:55:00
10:15 PM,39.2,35.6,87,29.98,10.0,WNW,3.5,-,N/A,,Scattered Clouds,300,2013-02-14 03:15:00
10:35 PM,37.4,35.6,93,29.98,10.0,Calm,Calm,-,N/A,,Clear,0,2013-02-14 03:35:00
10:55 PM,37.4,35.6,93,29.99,10.0,NW,4.6,-,N/A,,Clear,310,2013-02-14 03:55:00
11:15 PM,37.4,35.6,93,29.99,10.0,NW,4.6,-,N/A,,Clear,310,2013-02-14 04:15:00
11:35 PM,37.4,33.8,87,29.99,10.0,NW,4.6,-,N/A,,Clear,320,2013-02-14 04:35:00
11:55 PM,37.4,33.8,87,29.99,10.0,NNW,6.9,-,N/A,,Clear,330,2013-02-14 04:55:00